Back to catalog

FENGYUN 1C DEB

AliveSSO
NORAD 30749·DEBRIS·🇨🇳 China

Launched May 10, 1999 from Taiyuan Satellite Launch Center

Loading…

Next Passes (next 24 hours)

TLE

FreshSource: Space-Track

Epoch: Sep 13, 2026, 06:33 UTC

1 30749U 99025ATK 26256.27355053  .00000307  00000-0  23444-3 0  9999
2 30749  98.8599 279.7457 0057616 185.9573 174.0913 13.99895693998077

Track FENGYUN 1C DEB in real time with AllMySat

Download on the App Store